Flag for U.S.A. Weather past 2 weeks in Albuquerque, New Mexico, U.S.A.

62 °F

Passing clouds.

Feels Like: 62 °F
Forecast: 52 / 74 °F
Wind: 13 mph from Southeast

Location: Albuquerque International Airport

Current Time: Oct 8, 2015 at 8:40:35 PM

Latest Report: Oct 8, 2015 at 7:52 PM

Visibility: 10 mi

Pressure: 30.10 "Hg (25.19 "Hg at 1510m altitude)

Humidity: 60%

Dew point: 48 °F

Location of AlbuquerqueLocation

Historic Weather in Albuquerque — Graph


Albuquerque temperature yesterday

Maximum temperature yesterday: 66 °F (at 3:52 PM)
Minimum temperature yesterday: 49 °F (at 5:52 AM)
Average temperature yesterday: 58 °F

Past Weeks' High & Low Weather Summary

High90 °F (Sep 27, 4:52 PM)93% (Oct 7, 6:52 AM)30.21 "Hg (Oct 7, 6:52 AM)
Low49 °F (Oct 7, 5:52 AM)11% (Sep 27, 5:52 PM)29.56 "Hg (Oct 3, 3:52 PM)
Average69 °F46%29.93 "Hg
* Reported Sep 23 6:52 PM — Oct 8 6:52 PM, Albuquerque, Weather by CustomWeather, © 2015

Note: Actual official high and low records may vary slightly from our data, if they occured in-between our weather recording intervals... More about our weather records


Albuquerque weather history for previous 24 hours

Time TempWeatherWind HumidityBarometerVisibility
6:52 PM
Thu, Oct 8
63 °FPartly sunny.16 mph56%30.09 "Hg10 mi
5:52 PM64 °FPartly sunny.17 mph54%30.06 "Hg10 mi
4:52 PM64 °FPartly sunny.22 mph54%30.05 "Hg10 mi
3:52 PM66 °FPartly sunny.18 mph49%30.02 "Hg10 mi
2:52 PM67 °FBroken clouds.13 mph44%30.03 "Hg10 mi
1:52 PM65 °FMostly cloudy.No wind47%30.06 "Hg10 mi
12:52 PM63 °FPartly sunny.5 mph50%30.08 "Hg10 mi
11:52 AM62 °FOvercast.8 mph52%30.10 "Hg10 mi
10:52 AM59 °FPartly sunny.6 mph58%30.12 "Hg10 mi
9:52 AM56 °FPartly sunny.8 mph67%30.12 "Hg10 mi
8:52 AM56 °FPartly sunny.5 mph67%30.11 "Hg10 mi
7:52 AM52 °FPassing clouds.6 mph75%30.10 "Hg10 mi
6:52 AM51 °FPassing clouds.6 mph77%30.08 "Hg10 mi
5:52 AM53 °FPassing clouds.9 mph72%30.06 "Hg10 mi
4:52 AM52 °FPassing clouds.6 mph75%30.06 "Hg10 mi
3:52 AM55 °FPassing clouds.10 mph69%30.04 "Hg10 mi
2:52 AM56 °FPassing clouds.15 mph65%30.04 "Hg10 mi
1:52 AM56 °FPassing clouds.12 mph65%30.05 "Hg10 mi
12:52 AM56 °FPassing clouds.13 mph65%30.04 "Hg10 mi
11:52 PM
Wed, Oct 7
57 °FPassing clouds.8 mph60%30.05 "Hg10 mi
10:52 PM58 °FPassing clouds.10 mph58%30.05 "Hg10 mi
9:52 PM57 °FPassing clouds.9 mph60%30.07 "Hg10 mi
8:52 PM59 °FPassing clouds.9 mph58%30.07 "Hg10 mi
Weather by CustomWeather, © 2015

See weather overviewHow to use our weather pages